BSAT-3B

Last updated on Sun Dec 21 2025 00:02:53 GMT+0000 (Coordinated Universal Time)

1 37207U 10056B 25354.62311568 -.00000327 00000+0 00000+0 0 9993 2 37207 0.0540 227.6508 0004084 27.2342 168.7415 1.00272178 50304
UTC large
Height (km)
Speed (km/s)
/
Latitude / Longitude
Inclination (degrees)
Orbital Period (minutes)
Azimuth
Elevation
Range (km)
Doppler Factor

Next 0 passes for location: London (51.5072 / 0.1276)

Sorry there are no passes over London.